Volver al catálogo

FENGYUN 1C DEB

ActivoSSO
NORAD 30467·DEBRIS·🇨🇳 China

Lanzado May 10, 1999 desde Taiyuan Satellite Launch Center

Loading…

Próximos Pases (próximas 24 horas)

TLE

ActualizadoSource: Space-Track

Época: Sep 14, 2026, 07:26 UTC

1 30467U 99025AGE 26257.30992078  .00001011  00000-0  50301-3 0  9990
2 30467  98.6567 283.1848 0064467  56.4282   5.3258 14.18117642 10707

Sigue FENGYUN 1C DEB en tiempo real con AllMySat

Download on the App Store